Regional Weather Roundup
Issued by NWS

Home | Current Version | Previous Version | Text Only | Print | Product List | Glossary Off
Versions: 1 2 3 4 5 6 7 8 9 10 11 12 13 14 15 16 17 18 19 20 21 22 23 24 25 26 27

000
ASUS45 KPSR 200210
RWRAZ

ARIZONA HOURLY REGIONAL WEATHER ROUNDUP
NATIONAL WEATHER SERVICE PHOENIX AZ
700 PM MST WED JUL 19 2017

NOTE: FAIR INDICATES FEW OR NO CLOUDS BELOW 12,000 FEET WITH NO
SIGNIFICANT WEATHER AND/OR OBSTRUCTIONS TO VISIBILITY.

AZZ001>003-036-200300-
NORTHWEST ARIZONA

CITY           SKY/WX    TMP DP  RH WIND       PRES   REMARKS
BULLHEAD CITY  PTCLDY    91  70  49 N9        29.85R
KINGMAN        CLOUDY    82  63  52 CALM      30.07S
$$

AZZ004>008-015-016-018-200300-
NORTH CENTRAL ARIZONA

CITY           SKY/WX    TMP DP  RH WIND       PRES   REMARKS
GRAND CANYON   MOCLDY    66  62  87 CALM      30.32R
WILLIAMS       CLOUDY    70  50  49 SE15G24   30.35R
PRESCOTT       LGT RAIN  70  66  87 S5        30.18F
FLAGSTAFF      LGT RAIN  58  56  93 CALM      30.35F
PAYSON         MOCLDY    75  61  60 NW10      30.20S
PAGE           PTCLDY    87  57  35 W6        30.06S
$$

AZZ009>014-017-200300-
NORTHEAST ARIZONA

CITY           SKY/WX    TMP DP  RH WIND       PRES   REMARKS
WINSLOW        CLOUDY    76  57  51 SW12      30.13R
SAINT JOHNS    PTCLDY    77  58  51 NW12      30.16R
WINDOW ROCK    PTCLDY    84  42  22 S18G26    30.23R
SHOW LOW       CLOUDY    72  52  49 S14       30.26R
$$

AZZ540-542>544-546-548-200300-
GREATER PHOENIX AREA

CITY           SKY/WX    TMP DP  RH WIND       PRES   REMARKS
PHOENIX        CLOUDY    97  61  30 W10       29.86R
BUCKEYE        PTCLDY    95  63  34 N12       29.86S
GLENDALE       MOCLDY    99  64  32 W8        29.88R HX 101
DEER VALLEY    MOCLDY    95  65  37 N13       29.88R
SCOTTSDALE     MOCLDY    97  64  33 NW10      29.90R
MESA-FALCON    MOCLDY    97  64  34 W9G21     29.89R
MESA-GATEWAY   MOCLDY    97  61  30 W10G20    29.90S
CHANDLER       PTCLDY    97  61  30 SW9       29.88R
$$

AZZ539-553-200300-
SOUTHWEST MARICOPA COUNTY AND PINAL COUNTY

CITY           SKY/WX    TMP DP  RH WIND       PRES   REMARKS
CASA GRANDE    CLOUDY    85  70  60 S5        29.91F
$$

AZZ503-504-507>509-200300-
SOUTHEAST ARIZONA

CITY           SKY/WX    TMP DP  RH WIND       PRES   REMARKS
TUCSON         CLOUDY    82  66  58 N3        30.03R
RYAN FIELD     CLEAR     81  68  65 NW8       30.02R
NOGALES        CLOUDY    73  64  73 S14       30.13R
SIERRA VISTA   MOCLDY    71  64  78 CALM      30.17R
DOUGLAS        MOCLDY    78  65  63 W7        30.09S
SAFFORD        PTCLDY    87  61  41 NW20      29.98R
$$

AZZ532-200300-
SOUTHWEST ARIZONA

CITY           SKY/WX    TMP DP  RH WIND       PRES   REMARKS
YUMA           PTCLDY   102  58  23 S13       29.80R HX 102
$$

CAZ041-043-047-048-061-525>527-560>570-200300-
SOUTHERN CALIFORNIA

CITY           SKY/WX    TMP DP  RH WIND       PRES   REMARKS
DOWNTOWN L.A.  MOSUNNY   78  61  55 W5        29.91S
L.A. AIRPORT   MOSUNNY   73  66  78 W14       29.92S
SAN DIEGO      MOCLDY    75  65  70 W5        29.96R
BURBANK        MOSUNNY   81  53  37 S10       29.92R
ONTARIO        PTSUNNY   86  59  39 W14       29.92R
RIVERSIDE      SUNNY     85  62  46 W13       29.91R
PALM SPRINGS   PTCLDY    99  58  25 SE9       29.83F
EL CENTRO NAS  PTCLDY   102  56  21 SE8       29.79R HX 101
IMPERIAL       MOCLDY   103  59  23 SE12      29.77R HX 103
BLYTHE         MOCLDY   102  60  25 E8        29.80S HX 103
NEEDLES        PTCLDY   101  62  27 N7        29.85S HX 102
$$

NVZ020-UTZ003-200300-
SOUTHERN NEVADA-UTAH

CITY           SKY/WX    TMP DP  RH WIND       PRES   REMARKS
LAS VEGAS      MOCLDY    87  63  44 E10       29.96S
SALT LAKE CITY CLOUDY    85  56  37 S22G29    30.03R
$$

NMZ009-TXZ055-200300-
NEW MEXICO-WEST TEXAS

CITY           SKY/WX    TMP DP  RH WIND       PRES   REMARKS
ALBUQUERQUE    PTCLDY    88  40  18 SE17      30.15R
EL PASO        CLOUDY    73  61  65 SE5       30.14R
$$


........................KEY........................
SKY/WX - SKY CONDITION/WEATHER
TMP    - TEMPERATURE IN FAHRENHEIT
DP     - DEW POINT IN FAHRENHEIT
RH     - RELATIVE HUMIDITY IN PERCENT
WIND   - DIRECTION AND SPEED IN MILES PER HOUR (MPH)
VRB    - VARIABLE WIND DIRECTION
PRES   - MEAN SEA LEVEL PRESSURE IN INCHES OF MERCURY
         F - FALLING PRESSURE   R - RISING PRESSURE
         S - STEADY PRESSURE
VSB    - VISIBILITY IN MILES
HX     - HEAT INDEX IN FAHRENHEIT
WCI    - WIND CHILL INDEX IN FAHRENHEIT
TC     - TEMPERATURE IN CELSIUS WHICH IS ALSO KNOWN AS
         TEMPERATURE IN CENTIGRADE
AFB    - AIR FORCE BASE
         LUKE AFB IS LUKE AIR FORCE BASE
         DAVIS-MONTHAN IS DAVIS-MONTHAN AIR FORCE BASE
NAS    - NAVAL AIR STATION
         EL CENTRO NAS IS EL CENTRO NAVAL AIR STATION
N/A    - NOT AVAILABLE





USA.gov is the U.S. government's official web portal to all federal, state and local government web resources and services.